TimeEDT,TemperatureF,Dew PointF,Humidity,Sea Level PressureIn,VisibilityMPH,Wind Direction,Wind SpeedMPH,Gust SpeedMPH,PrecipitationIn,Events,Conditions,WindDirDegrees,DateUTC
12:53 AM,55.9,53.1,90,30.10,10.0,NE,3.5,-,0.00,,Overcast,50,2013-10-12 04:53:00
1:53 AM,55.9,53.1,90,30.10,10.0,East,3.5,-,N/A,,Overcast,80,2013-10-12 05:53:00
2:53 AM,57.0,54.0,89,30.09,10.0,NE,4.6,-,N/A,,Overcast,50,2013-10-12 06:53:00
3:53 AM,57.0,55.0,93,30.09,10.0,NE,6.9,-,N/A,,Overcast,40,2013-10-12 07:53:00
4:53 AM,60.1,55.9,86,30.10,10.0,NE,8.1,-,N/A,,Overcast,40,2013-10-12 08:53:00
5:53 AM,57.9,55.9,93,30.12,10.0,NE,3.5,-,N/A,,Overcast,40,2013-10-12 09:53:00
6:53 AM,57.9,55.9,93,30.13,10.0,NE,4.6,-,N/A,,Overcast,50,2013-10-12 10:53:00
7:22 AM,57.2,55.4,94,30.13,10.0,Variable,4.6,-,N/A,,Overcast,0,2013-10-12 11:22:00
7:30 AM,57.2,55.4,94,30.13,10.0,ENE,5.8,-,N/A,,Overcast,70,2013-10-12 11:30:00
7:53 AM,59.0,55.9,90,30.14,10.0,ENE,3.5,-,N/A,,Overcast,60,2013-10-12 11:53:00
8:14 AM,59.0,55.4,88,30.14,10.0,NE,3.5,-,N/A,,Overcast,50,2013-10-12 12:14:00
8:41 AM,60.8,55.4,82,30.15,10.0,NE,4.6,-,N/A,,Overcast,40,2013-10-12 12:41:00
8:53 AM,61.0,55.9,83,30.16,10.0,NE,5.8,-,N/A,,Overcast,40,2013-10-12 12:53:00
9:23 AM,60.8,55.4,82,30.16,10.0,NNE,8.1,-,N/A,,Mostly Cloudy,20,2013-10-12 13:23:00
9:53 AM,62.1,55.9,80,30.16,10.0,NE,8.1,-,N/A,,Mostly Cloudy,40,2013-10-12 13:53:00
10:53 AM,62.1,57.0,84,30.17,10.0,NE,6.9,-,N/A,,Overcast,50,2013-10-12 14:53:00
11:53 AM,64.0,55.9,75,30.18,10.0,ENE,5.8,-,N/A,,Overcast,60,2013-10-12 15:53:00
12:14 PM,64.4,55.4,73,30.18,10.0,ENE,6.9,-,N/A,,Overcast,60,2013-10-12 16:14:00
12:53 PM,66.9,55.9,68,30.16,10.0,ENE,8.1,-,N/A,,Mostly Cloudy,60,2013-10-12 16:53:00
1:53 PM,69.1,57.0,65,30.14,10.0,East,6.9,-,N/A,,Overcast,100,2013-10-12 17:53:00
2:53 PM,69.1,55.9,63,30.14,10.0,East,9.2,-,N/A,,Mostly Cloudy,90,2013-10-12 18:53:00
3:53 PM,69.1,55.9,63,30.14,10.0,ENE,5.8,-,N/A,,Clear,60,2013-10-12 19:53:00
4:53 PM,69.1,55.0,61,30.14,10.0,East,6.9,-,N/A,,Overcast,80,2013-10-12 20:53:00
5:53 PM,66.9,53.1,61,30.16,10.0,East,6.9,-,N/A,,Overcast,80,2013-10-12 21:53:00
6:53 PM,66.0,54.0,65,30.17,10.0,East,5.8,-,N/A,,Overcast,90,2013-10-12 22:53:00
7:53 PM,64.9,51.1,61,30.19,10.0,Variable,3.5,-,N/A,,Overcast,0,2013-10-12 23:53:00
8:53 PM,64.0,48.0,56,30.20,10.0,East,3.5,-,N/A,,Overcast,80,2013-10-13 00:53:00
9:42 PM,62.6,50.0,63,30.22,10.0,SE,6.9,-,N/A,,Overcast,130,2013-10-13 01:42:00
9:53 PM,63.0,50.0,63,30.21,10.0,ESE,4.6,-,N/A,,Overcast,110,2013-10-13 01:53:00
10:53 PM,63.0,50.0,63,30.21,10.0,ENE,3.5,-,N/A,,Overcast,70,2013-10-13 02:53:00
11:07 PM,62.6,51.8,68,30.23,10.0,Variable,3.5,-,N/A,,Overcast,0,2013-10-13 03:07:00
11:53 PM,62.1,52.0,70,30.22,10.0,ENE,3.5,-,N/A,,Overcast,70,2013-10-13 03:53:00